Time,TemperatureF,DewpointF,PressureIn,WindDirection,WindDirectionDegrees,WindSpeedMPH,WindSpeedGustMPH,Humidity,HourlyPrecipIn,Conditions,Clouds,dailyrainin,SoftwareType,DateUTC
2013-06-01 00:02:00,78.1,75.0,30.09,ESE,103,9.0,16.0,89,0.00,,,0.00,weatherlink.com 1.10,2013-06-01 04:02:00,
2013-06-01 00:17:00,78.0,74.0,30.09,East,96,9.0,14.0,87,0.00,,,0.00,weatherlink.com 1.10,2013-06-01 04:17:00,
2013-06-01 00:32:00,78.1,74.0,30.08,East,86,8.0,16.0,88,0.00,,,0.00,weatherlink.com 1.10,2013-06-01 04:32:00,
2013-06-01 00:47:00,78.1,75.0,30.08,East,99,9.0,14.0,89,0.00,,,0.00,weatherlink.com 1.10,2013-06-01 04:47:00,
2013-06-01 01:02:00,78.1,75.0,30.07,East,79,8.0,13.0,89,0.00,,,0.00,weatherlink.com 1.10,2013-06-01 05:02:00,
2013-06-01 01:17:00,77.9,74.0,30.07,ESE,103,7.0,13.0,88,0.00,,,0.00,weatherlink.com 1.10,2013-06-01 05:17:00,
2013-06-01 01:32:00,77.7,75.0,30.07,ESE,106,4.0,11.0,90,0.00,,,0.00,weatherlink.com 1.10,2013-06-01 05:32:00,
2013-06-01 01:47:00,77.5,75.0,30.06,East,96,6.0,10.0,91,0.00,,,0.00,weatherlink.com 1.10,2013-06-01 05:47:00,
2013-06-01 02:02:00,77.5,75.0,30.06,East,83,8.0,11.0,91,0.00,,,0.00,weatherlink.com 1.10,2013-06-01 06:02:00,
2013-06-01 02:17:00,77.8,74.0,30.05,East,93,3.0,11.0,89,0.00,,,0.00,weatherlink.com 1.10,2013-06-01 06:17:00,
2013-06-01 02:32:00,77.8,74.0,30.05,ESE,102,6.0,9.0,89,0.00,,,0.00,weatherlink.com 1.10,2013-06-01 06:32:00,
2013-06-01 02:47:00,77.4,75.0,30.04,SSE,158,3.0,4.0,91,0.01,,,0.01,weatherlink.com 1.10,2013-06-01 06:47:00,
2013-06-01 03:02:00,77.4,75.0,30.04,ESE,110,5.0,9.0,91,0.01,,,0.01,weatherlink.com 1.10,2013-06-01 07:02:00,
2013-06-01 03:17:00,77.6,75.0,30.04,East,98,4.0,7.0,91,0.01,,,0.01,weatherlink.com 1.10,2013-06-01 07:17:00,
2013-06-01 03:32:00,77.5,74.0,30.04,ESE,105,3.0,7.0,90,0.01,,,0.01,weatherlink.com 1.10,2013-06-01 07:32:00,
2013-06-01 03:47:00,77.4,74.0,30.03,ESE,120,3.0,8.0,90,0.00,,,0.01,weatherlink.com 1.10,2013-06-01 07:47:00,
2013-06-01 04:02:00,77.3,75.0,30.03,ESE,115,5.0,8.0,91,0.00,,,0.01,weatherlink.com 1.10,2013-06-01 08:02:00,
2013-06-01 04:18:00,77.5,75.0,30.03,East,89,5.0,8.0,91,0.00,,,0.01,weatherlink.com 1.10,2013-06-01 08:18:00,
2013-06-01 04:33:00,76.5,74.0,30.03,ESE,122,2.0,6.0,92,0.00,,,0.01,weatherlink.com 1.10,2013-06-01 08:33:00,
2013-06-01 04:48:00,76.6,75.0,30.03,East,93,3.0,6.0,94,0.00,,,0.01,weatherlink.com 1.10,2013-06-01 08:48:00,
2013-06-01 05:03:00,76.6,75.0,30.02,East,98,4.0,7.0,93,0.00,,,0.01,weatherlink.com 1.10,2013-06-01 09:03:00,
2013-06-01 05:18:00,76.6,75.0,30.02,East,89,4.0,7.0,95,0.00,,,0.01,weatherlink.com 1.10,2013-06-01 09:18:00,
2013-06-01 05:34:00,76.6,75.0,30.02,East,96,0.0,2.0,95,0.00,,,0.01,weatherlink.com 1.10,2013-06-01 09:34:00,
2013-06-01 05:48:00,76.4,75.0,30.03,SE,126,6.0,6.0,95,0.00,,,0.01,weatherlink.com 1.10,2013-06-01 09:48:00,
2013-06-01 06:03:00,76.7,75.0,30.03,ESE,110,0.0,7.0,94,0.00,,,0.01,weatherlink.com 1.10,2013-06-01 10:03:00,
2013-06-01 06:18:00,76.8,75.0,30.04,East,89,1.0,5.0,93,0.00,,,0.01,weatherlink.com 1.10,2013-06-01 10:18:00,
2013-06-01 06:33:00,76.7,74.0,30.04,SE,129,0.0,4.0,92,0.00,,,0.01,weatherlink.com 1.10,2013-06-01 10:33:00,
2013-06-01 06:48:00,76.8,74.0,30.05,ESE,115,2.0,4.0,92,0.00,,,0.01,weatherlink.com 1.10,2013-06-01 10:48:00,
2013-06-01 07:03:00,77.1,75.0,30.05,ESE,110,1.0,3.0,92,0.00,,,0.01,weatherlink.com 1.10,2013-06-01 11:03:00,
2013-06-01 07:18:00,77.7,75.0,30.06,ESE,112,3.0,4.0,91,0.00,,,0.01,weatherlink.com 1.10,2013-06-01 11:18:00,
2013-06-01 07:33:00,78.5,75.0,30.06,East,101,3.0,6.0,89,0.00,,,0.01,weatherlink.com 1.10,2013-06-01 11:33:00,
2013-06-01 07:48:00,79.0,75.0,30.07,ESE,103,4.0,7.0,87,0.00,,,0.01,weatherlink.com 1.10,2013-06-01 11:48:00,
2013-06-01 08:03:00,79.6,75.0,30.07,ESE,109,6.0,8.0,86,0.00,,,0.01,weatherlink.com 1.10,2013-06-01 12:03:00,
2013-06-01 08:18:00,80.2,75.0,30.07,East,86,4.0,7.0,85,0.00,,,0.01,weatherlink.com 1.10,2013-06-01 12:18:00,
2013-06-01 08:33:00,80.0,75.0,30.07,East,92,5.0,8.0,85,0.00,,,0.01,weatherlink.com 1.10,2013-06-01 12:33:00,
2013-06-01 08:48:00,80.2,75.0,30.07,East,87,6.0,9.0,84,0.00,,,0.01,weatherlink.com 1.10,2013-06-01 12:48:00,
2013-06-01 09:03:00,80.3,75.0,30.07,East,82,8.0,8.0,84,0.00,,,0.01,weatherlink.com 1.10,2013-06-01 13:03:00,
2013-06-01 09:18:00,79.6,76.0,30.08,East,79,8.0,10.0,89,0.01,,,0.02,weatherlink.com 1.10,2013-06-01 13:18:00,
2013-06-01 09:33:00,79.6,76.0,30.07,ENE,75,5.0,9.0,88,0.01,,,0.02,weatherlink.com 1.10,2013-06-01 13:33:00,
2013-06-01 09:48:00,80.4,76.0,30.07,East,82,4.0,11.0,86,0.01,,,0.02,weatherlink.com 1.10,2013-06-01 13:48:00,
2013-06-01 10:03:00,80.8,76.0,30.07,ENE,71,5.0,10.0,86,0.01,,,0.02,weatherlink.com 1.10,2013-06-01 14:03:00,
2013-06-01 10:18:00,81.2,76.0,30.08,East,79,9.0,12.0,84,0.00,,,0.02,weatherlink.com 1.10,2013-06-01 14:18:00,
2013-06-01 10:33:00,81.1,76.0,30.07,ENE,61,10.0,12.0,83,0.00,,,0.02,weatherlink.com 1.10,2013-06-01 14:33:00,
2013-06-01 10:48:00,81.5,76.0,30.08,East,86,9.0,12.0,82,0.00,,,0.02,weatherlink.com 1.10,2013-06-01 14:48:00,
2013-06-01 11:03:00,81.4,76.0,30.08,ENE,75,9.0,12.0,83,0.00,,,0.02,weatherlink.com 1.10,2013-06-01 15:03:00,
2013-06-01 11:18:00,81.4,75.0,30.08,ENE,72,11.0,13.0,82,0.00,,,0.02,weatherlink.com 1.10,2013-06-01 15:18:00,
2013-06-01 11:33:00,81.0,75.0,30.08,East,93,12.0,14.0,82,0.00,,,0.02,weatherlink.com 1.10,2013-06-01 15:33:00,
2013-06-01 11:48:00,81.6,75.0,30.08,East,100,12.0,14.0,80,0.00,,,0.02,weatherlink.com 1.10,2013-06-01 15:48:00,
2013-06-01 12:03:00,81.6,76.0,30.07,East,87,12.0,14.0,82,0.00,,,0.02,weatherlink.com 1.10,2013-06-01 16:03:00,
2013-06-01 12:18:00,81.2,76.0,30.08,NE,51,11.0,16.0,83,0.00,,,0.02,weatherlink.com 1.10,2013-06-01 16:18:00,
2013-06-01 12:33:00,80.6,76.0,30.07,East,99,8.0,15.0,85,0.00,,,0.02,weatherlink.com 1.10,2013-06-01 16:33:00,
2013-06-01 12:48:00,80.7,76.0,30.07,ENE,75,13.0,16.0,85,0.00,,,0.02,weatherlink.com 1.10,2013-06-01 16:48:00,
2013-06-01 13:03:00,81.3,76.0,30.07,East,95,12.0,17.0,83,0.00,,,0.02,weatherlink.com 1.10,2013-06-01 17:03:00,
2013-06-01 13:18:00,81.5,76.0,30.07,ENE,65,7.0,15.0,84,0.00,,,0.02,weatherlink.com 1.10,2013-06-01 17:18:00,
2013-06-01 13:33:00,81.0,76.0,30.07,ENE,74,11.0,15.0,84,0.00,,,0.02,weatherlink.com 1.10,2013-06-01 17:33:00,
2013-06-01 13:48:00,80.9,76.0,30.06,ENE,73,11.0,15.0,84,0.00,,,0.02,weatherlink.com 1.10,2013-06-01 17:48:00,
2013-06-01 14:03:00,80.4,75.0,30.06,East,94,8.0,14.0,84,0.00,,,0.02,weatherlink.com 1.10,2013-06-01 18:03:00,
2013-06-01 14:18:00,80.0,75.0,30.05,ENE,72,8.0,13.0,84,0.00,,,0.02,weatherlink.com 1.10,2013-06-01 18:18:00,
2013-06-01 14:33:00,80.2,75.0,30.05,East,95,8.0,13.0,84,0.00,,,0.02,weatherlink.com 1.10,2013-06-01 18:33:00,
2013-06-01 14:48:00,80.2,75.0,30.05,ENE,78,14.0,14.0,84,0.00,,,0.02,weatherlink.com 1.10,2013-06-01 18:48:00,
2013-06-01 15:03:00,80.3,75.0,30.05,ENE,65,10.0,13.0,84,0.00,,,0.02,weatherlink.com 1.10,2013-06-01 19:03:00,
2013-06-01 15:18:00,80.1,75.0,30.05,ENE,71,9.0,12.0,84,0.00,,,0.02,weatherlink.com 1.10,2013-06-01 19:18:00,
2013-06-01 15:33:00,80.1,75.0,30.05,East,91,7.0,11.0,85,0.00,,,0.02,weatherlink.com 1.10,2013-06-01 19:33:00,
2013-06-01 15:48:00,79.1,75.0,30.04,East,94,11.0,15.0,86,0.00,,,0.02,weatherlink.com 1.10,2013-06-01 19:48:00,
2013-06-01 16:03:00,79.2,74.0,30.04,ESE,119,8.0,13.0,85,0.00,,,0.02,weatherlink.com 1.10,2013-06-01 20:03:00,
2013-06-01 16:18:00,78.6,75.0,30.05,ESE,106,10.0,11.0,88,0.00,,,0.02,weatherlink.com 1.10,2013-06-01 20:18:00,
2013-06-01 16:33:00,78.4,74.0,30.03,East,101,9.0,11.0,87,0.00,,,0.02,weatherlink.com 1.10,2013-06-01 20:33:00,
2013-06-01 16:48:00,78.1,74.0,30.04,ESE,114,5.0,10.0,88,0.00,,,0.02,weatherlink.com 1.10,2013-06-01 20:48:00,
2013-06-01 17:03:00,77.9,74.0,30.04,SE,145,3.0,11.0,87,0.00,,,0.02,weatherlink.com 1.10,2013-06-01 21:03:00,
2013-06-01 17:18:00,77.9,74.0,30.04,SE,128,4.0,8.0,87,0.00,,,0.02,weatherlink.com 1.10,2013-06-01 21:18:00,
2013-06-01 17:33:00,77.8,74.0,30.03,East,96,3.0,7.0,89,0.00,,,0.02,weatherlink.com 1.10,2013-06-01 21:33:00,
2013-06-01 17:48:00,77.7,74.0,30.03,ESE,117,5.0,8.0,89,0.00,,,0.02,weatherlink.com 1.10,2013-06-01 21:48:00,
2013-06-01 18:04:00,77.6,75.0,30.03,ESE,122,3.0,6.0,91,0.00,,,0.02,weatherlink.com 1.10,2013-06-01 22:04:00,
2013-06-01 18:19:00,77.7,75.0,30.05,SE,135,1.0,4.0,91,0.00,,,0.02,weatherlink.com 1.10,2013-06-01 22:19:00,
2013-06-01 18:34:00,77.7,75.0,30.05,ESE,122,1.0,5.0,91,0.00,,,0.02,weatherlink.com 1.10,2013-06-01 22:34:00,
2013-06-01 18:49:00,77.6,75.0,30.05,South,175,1.0,6.0,90,0.00,,,0.02,weatherlink.com 1.10,2013-06-01 22:49:00,
2013-06-01 19:04:00,77.7,75.0,30.05,SE,141,1.0,4.0,90,0.00,,,0.02,weatherlink.com 1.10,2013-06-01 23:04:00,
2013-06-01 19:19:00,77.6,75.0,30.05,SE,141,0.0,0.0,90,0.00,,,0.02,weatherlink.com 1.10,2013-06-01 23:19:00,
2013-06-01 19:34:00,77.4,75.0,30.05,SE,141,0.0,0.0,91,0.00,,,0.02,weatherlink.com 1.10,2013-06-01 23:34:00,
2013-06-01 19:49:00,77.2,75.0,30.05,SE,141,0.0,0.0,91,0.00,,,0.02,weatherlink.com 1.10,2013-06-01 23:49:00,
2013-06-01 20:04:00,77.2,75.0,30.05,SSE,151,2.0,3.0,92,0.00,,,0.02,weatherlink.com 1.10,2013-06-02 00:04:00,
2013-06-01 20:19:00,77.1,74.0,30.05,SW,232,0.0,2.0,91,0.00,,,0.02,weatherlink.com 1.10,2013-06-02 00:19:00,
2013-06-01 20:34:00,77.2,75.0,30.05,SSE,155,0.0,4.0,91,0.00,,,0.02,weatherlink.com 1.10,2013-06-02 00:34:00,
2013-06-01 20:49:00,77.2,75.0,30.06,SSE,167,0.0,6.0,91,0.00,,,0.02,weatherlink.com 1.10,2013-06-02 00:49:00,
2013-06-01 21:04:00,77.2,75.0,30.06,SSE,148,1.0,4.0,91,0.00,,,0.02,weatherlink.com 1.10,2013-06-02 01:04:00,
2013-06-01 21:19:00,77.1,74.0,30.05,SSE,148,2.0,4.0,91,0.00,,,0.02,weatherlink.com 1.10,2013-06-02 01:19:00,
2013-06-01 21:34:00,77.0,74.0,30.06,SE,131,5.0,5.0,91,0.00,,,0.02,weatherlink.com 1.10,2013-06-02 01:34:00,
2013-06-01 21:49:00,77.0,74.0,30.06,West,263,1.0,4.0,91,0.00,,,0.02,weatherlink.com 1.10,2013-06-02 01:49:00,
2013-06-01 22:04:00,76.8,74.0,30.06,SW,219,0.0,1.0,91,0.00,,,0.02,weatherlink.com 1.10,2013-06-02 02:04:00,
2013-06-01 22:19:00,76.6,74.0,30.06,SW,220,0.0,0.0,92,0.00,,,0.02,weatherlink.com 1.10,2013-06-02 02:19:00,
2013-06-01 22:34:00,76.2,74.0,30.07,SE,146,0.0,0.0,92,0.00,,,0.02,weatherlink.com 1.10,2013-06-02 02:34:00,
2013-06-01 22:49:00,76.0,74.0,30.07,SE,142,0.0,0.0,92,0.01,,,0.03,weatherlink.com 1.10,2013-06-02 02:49:00,
2013-06-01 23:04:00,76.1,74.0,30.07,SW,232,0.0,0.0,92,0.01,,,0.03,weatherlink.com 1.10,2013-06-02 03:04:00,
2013-06-01 23:19:00,76.0,74.0,30.07,SE,141,0.0,0.0,92,0.01,,,0.03,weatherlink.com 1.10,2013-06-02 03:19:00,
2013-06-01 23:34:00,76.0,74.0,30.06,SSE,148,0.0,3.0,92,0.01,,,0.03,weatherlink.com 1.10,2013-06-02 03:34:00,
2013-06-01 23:49:00,75.9,74.0,30.07,ESE,105,0.0,0.0,92,0.00,,,0.03,weatherlink.com 1.10,2013-06-02 03:49:00,